Location: Wildlife_Club
(35.6000°N, 81.4330°W)
Time: 19:21:11
(UTC-04:00)

A-11 Canister half - Pass Details

Date: 24 June 2019
Orbit: 1527 x 1682 km, 47.3° (Epoch: 13 October)

Event Time Altitude Azimuth Distance (km) Brightness Sun altitude
Exits shadow 04:01:42 28° 199° (SSW) 2,623 9.7 -20.7°
Maximum altitude 04:06:53 55° 136° (SE) 1,822 9.3 -20.0°
Drops below altitude 10° 04:15:55 10° 62° (ENE) 3,712 12.1 -18.9°
Sets 04:19:01 0° 58° (ENE) 4,688 13.0 -18.5°
